weather.gov     
National Weather Service

Terminal Aerodrome Forecast
NWS Homepage
This page is being discontinued on March 12, 2014.
The same data is available at this site. Please update your bookmarks.
Thank you, and we apologize for the inconvenience.
Please send an email to SR-SRH.Webmaster@noaa.gov with any concerns.


Current Version
Previous Version:    01  02  03  04  05  06  07  08  09  10  11  12  13  14  15  16  17  18  19  20  21  22  23  24  25  26  27  28  29  30  
   31  
[Printable]
959
FTUS44 KBMX 231100
TAFMGM
TAF
KMGM 231131Z 2312/2412 09010KT P6SM VCSH OVC005
     FM231500 12012G18KT P6SM VCSH OVC008
      TEMPO 2315/2318 2SM SHRA
     FM231800 15012G20KT 4SM SHRA OVC015
      TEMPO 2318/2322 2SM TSRA BKN008CB
     FM232200 19010KT P6SM VCSH BKN025=


U.S. Dept. of Commerce
NOAA National Weather Service
1325 East West Highway
Silver Spring, MD 20910
E-mail: w-nws.webmaster@noaa.gov
Page last modified: May 16, 2007
NATIONAL WEATHER SERVICE: for Safety, for Work, for Fun - FOR LIFE